Location: Mugnana
(43.6500°N, 11.3167°E)
Time: 20:39:24
(UTC+00:00)

Daily predictions for brighter satellites

Satellite Brightness Start Highest point End
(mag) Time Altitude Azimuth Time Altitude Azimuth Time Altitude Azimuth
NOSS 3-2 (A) 4.3 17:22:32 10° NNW 17:29:54 58° NE 17:38:11 10° SE
Meteor 1-21 4.3 17:32:11 10° N 17:37:48 86° W 17:43:24 10° S
Cosmos 2151 Rocket 4.4 17:34:15 10° SSE 17:38:06 29° E 17:42:00 10° NNE
Lacrosse 5 rocket 3.9 17:37:12 10° NW 17:39:37 14° N 17:42:05 10° NNE
Cosmos 1975 Rocket 3.1 17:36:44 10° N 17:41:05 86° W 17:45:23 10° S
HJ-1C 4.3 17:40:44 10° SE 17:43:35 28° ENE 17:46:28 10° N
Shenzhou-11 Module 3.0 17:49:04 10° SSW 17:50:34 17° SSE 17:51:33 13° ESE
COSMO-SKYMED 1 3.5 17:46:29 10° N 17:50:45 55° WNW 17:54:59 10° SSW
Ariane Rocket 4.2 17:48:19 10° ESE 17:52:09 22° ENE 17:56:00 10° NNE
H-2A R/B 2.3 17:48:06 10° SE 17:52:52 47° ENE 17:57:46 10° N
Nadezhda 4 Rocket 4.3 17:48:06 10° N 17:53:54 43° ENE 17:59:41 10° SE
SJ 16-02 4.4 17:52:46 10° W 17:54:55 13° NW 17:57:05 10° NNW
Exosat Rocket 4.1 17:51:59 10° S 17:57:00 35° ESE 18:01:32 10° NE
Cosmos 2263 Rocket 4.1 17:53:15 10° WSW 17:58:10 31° NW 18:03:09 10° N
Cosmos 1939 Rocket 4.4 17:57:00 10° S 18:00:54 42° W 18:04:53 10° NNW
USA 116 3.6 17:57:16 10° NNE 18:01:00 72° ESE 18:05:12 10° S
Cosmos 1844 Rocket 2.6 17:56:50 10° SSW 18:02:20 68° ESE 18:07:54 10° NNE
Cosmos 1072 Rocket 4.5 17:56:08 10° S 18:02:23 80° E 18:08:46 10° N
Cosmos 372 Rocket 4.5 17:59:01 10° SSW 18:04:13 66° WNW 18:09:26 10° NNE
Cosmos 1707 2.8 18:02:21 10° N 18:06:11 78° W 18:09:59 10° S
Cosmos 2278 Rocket 4.1 18:10:00 - ENE 18:10:00 - ENE 18:03:58 10° SE
Cosmos 1626 4.0 18:05:35 10° NE 18:07:28 14° ENE 18:07:28 14° ENE
CZ-2C R/B 3.4 18:06:02 10° SW 18:08:07 14° SSW 18:10:07 10° SSE
NOSS 3-2 (C) 4.2 18:00:43 10° NNW 18:08:10 63° NE 18:16:08 12° SE
Cosmos 1844 3.7 18:04:11 10° S 18:09:46 63° ESE 18:15:22 10° NNE
Cosmos 2034 Rocket 4.1 18:03:41 10° S 18:09:55 60° E 18:16:08 10° NNE
NOSS 3-4 (A) 3.8 18:05:56 10° S 18:11:17 38° ESE 18:16:56 10° NE
NOSS 3-4 (C) 3.8 18:06:04 10° S 18:11:25 38° ESE 18:17:02 10° NE
ISS -1.9 18:08:52 10° WNW 18:11:46 26° NNW 18:14:40 10° NE
USA 186 3.0 18:11:03 21° E 18:11:58 24° ENE 18:14:40 10° NNE
Meteor 1-12 Rocket 4.4 18:07:28 10° S 18:13:21 86° W 18:19:11 10° N
Meteor 2-5 Rocket 4.4 18:08:57 10° N 18:14:05 34° ENE 18:18:15 15° SE
Cosmos 1300 Rocket 3.8 18:14:19 10° SSW 18:18:42 74° W 18:23:10 10° N
Okean 1 Rocket 3.5 18:17:46 10° SSE 18:21:56 39° E 18:26:08 10° NNE
Resurs 01 Rocket 3.6 18:25:52 13° ENE 18:25:52 13° ENE 18:27:41 10° NNE
CENTAUR R/B 3.2 18:19:11 10° NW 18:27:19 75° NE 18:34:46 16° SE
Cosmos 1833 Rocket 3.9 18:23:53 10° N 18:28:23 24° NE 18:30:12 20° ENE
CSL-04 Rocket 4.0 18:25:30 10° S 18:30:55 69° WSW 18:36:27 10° NNW
Cosmos 1766 3.6 18:29:16 10° SSE 18:32:57 42° E 18:36:42 10° NNE
Okean 2 Rocket 4.1 18:28:57 10° SSW 18:33:18 51° WNW 18:37:40 10° N
ATLAS 2AS CENTAUR R/B 3.1 18:26:02 10° SSW 18:33:41 56° ESE 18:41:22 10° NE
YAOGAN 1 4.1 18:29:41 10° SSW 18:33:41 37° W 18:37:43 10° NNW
Cosmos 1025 Rocket 3.7 18:31:17 10° NNW 18:35:35 56° W 18:39:53 10° S
Cosmos 1634 Rocket 4.2 18:31:57 10° SSE 18:37:42 43° E 18:43:31 10° NNE
ATLAS 3B R/B 3.5 18:33:07 10° NNW 18:39:22 36° NE 18:42:35 25° E
SPOT 3 Rocket 4.5 18:40:11 27° E 18:40:58 28° ENE 18:45:18 10° N
Abrixas rocket 1.8 18:39:19 10° WNW 18:42:09 69° NNE 18:42:11 69° NNE
CREW DRAGON DEMO-1 DEB 2.7 18:41:08 10° NW 18:44:09 69° NNE 18:44:16 68° NE
Cosmos 1536 Rocket 4.1 18:40:59 10° NNW 18:45:23 60° W 18:49:47 10° S
Cosmos 1125 Rocket 3.8 18:40:50 10° SSW 18:46:07 69° WNW 18:51:27 10° NNE
Resurs 1-3 4.5 18:48:54 31° ENE 18:48:54 31° ENE 18:52:36 10° N
SJ-6B 2.7 18:48:31 51° E 18:48:53 54° ENE 18:52:36 10° N
CZ-4 R/B 4.2 18:48:24 10° SW 18:51:28 19° W 18:54:31 10° NW
Cosmos 2195 Rocket 4.4 18:49:35 10° N 18:55:50 70° E 19:00:07 21° SSE
USA 238 DEB 4.4 18:49:19 10° NW 18:56:24 57° WSW 19:03:15 12° SSE
USA 238 4.4 18:49:25 10° NW 18:56:31 57° WSW 19:03:18 12° SSE
Cosmos 2285 Rocket 4.1 18:50:29 10° SSW 18:56:47 78° WNW 19:03:11 10° NNE
Cosmos 1627 Rocket 4.5 18:51:04 10° N 18:57:27 66° E 19:01:24 24° SSE
Cosmos 1674 3.2 18:53:57 10° NNW 18:57:45 60° W 19:00:17 20° S
Cosmos 2026 Rocket 4.0 18:52:21 10° N 18:58:43 64° E 19:02:16 27° SSE
Cosmos 1092 Rocket 3.9 18:52:41 10° N 18:58:54 83° E 19:04:17 14° S
MOS 1 Rocket 4.4 18:59:36 10° N 19:03:43 41° WNW 19:07:43 10° SW
Cosmos 1428 Rocket 4.4 19:01:01 10° N 19:07:16 70° E 19:10:06 34° SSE
TSX-5 4.1 19:04:23 10° SSW 19:08:09 74° WNW 19:13:00 10° NNE
ARGOS 4.0 19:03:43 10° S 19:08:54 49° W 19:14:08 10° NNW
Cosmos 1340 Rocket 4.0 19:15:11 32° NNE 19:15:11 32° NNE 19:17:27 10° NNE
CZ-2C R/B 2.7 19:08:31 10° NNE 19:14:07 84° WNW 19:19:45 10° SSW
Cosmos 2279 Rocket 4.1 19:12:59 46° SE 19:14:12 52° E 19:20:15 10° NNE
Cosmos 1733 3.5 19:13:47 36° SSW 19:15:10 65° W 19:19:00 10° N
MOS 1 4.3 19:13:05 28° S 19:16:12 82° WSW 19:21:57 10° NNW
Lacrosse 5 rocket 3.5 19:17:06 10° NNW 19:20:17 19° NNE 19:20:43 19° NNE
Cosmos 2082 Rocket 3.1 19:16:31 10° N 19:21:17 33° NE 19:21:17 33° NE
BREEZE-M R/B 4.1 19:15:40 10° W 19:23:56 50° NNW 19:24:25 46° N
DMSP B5D2-2 4.1 19:18:38 10° N 19:23:57 79° WNW 19:29:12 10° SSW
BREEZE-M DEB (TANK) 4.1 19:20:26 10° WNW 19:24:12 49° SSW 19:27:36 32° SSE
OBJECT-B 3.1 19:28:48 20° NNW 19:28:48 20° NNW 19:29:57 10° NNW
Cosmos 2142 Rocket 4.3 19:24:38 30° S 19:27:53 78° E 19:34:07 10° N
Ariane Rocket 3.7 19:28:06 25° SSW 19:30:45 50° W 19:35:43 10° NNW
H-2A R/B 4.3 19:28:43 10° SW 19:32:33 22° W 19:36:26 10° NW
Milstar 3 Cent rocket 4.1 19:29:18 10° SW 19:32:39 17° SSW 19:32:39 17° SSW
USA 234 4.2 19:38:14 31° S 19:38:14 31° S 19:41:45 10° SSW
USA 186 4.5 19:42:34 18° W 19:42:39 18° W 19:44:56 10° NW
Cosmos 1626 3.8 19:39:31 10° NNW 19:42:02 32° NW 19:42:02 32° NW
COSMOS 2406 3.2 19:42:01 10° NNW 19:47:41 72° WSW 19:47:55 71° SW
ISS -0.8 19:46:40 10° NW 19:47:46 16° NNW 19:47:46 16° NNW
Cosmos 2278 Rocket 2.6 19:44:31 10° SSW 19:51:32 54° NNE 19:55:53 10° NNE
Lacrosse 4 Rocket 3.4 19:51:14 10° NNW 19:52:52 23° NNW 19:52:52 23° NNW
Cosmos 909 Rocket 4.3 19:54:08 10° NNW 19:59:55 57° NNE 19:59:55 57° NNE
Resurs 01 Rocket 3.2 20:03:26 33° NNW 20:03:26 33° NNW 20:05:56 10° NNW
NOSS 3-4 (A) 4.5 19:56:27 10° WSW 20:02:05 43° NW 20:08:07 10° NNE
NOSS 3-4 (C) 4.4 19:56:33 10° WSW 20:02:11 43° NW 20:08:13 10° NNE
Meteor 2-19 Rocket 4.5 19:58:02 10° N 20:03:47 76° NW 20:03:47 76° NW
Cosmos 1833 Rocket 3.3 20:07:11 10° NNW 20:11:54 54° WNW 20:11:54 54° WNW
ATLAS 2AS CENTAUR R/B 4.0 20:17:26 10° WSW 20:24:58 44° NW 20:32:25 10° NNE
ATLAS 3B R/B 3.1 20:23:38 10° NW 20:29:50 58° W 20:29:50 58° W
Cosmos 2082 Rocket 4.1 21:00:33 10° NW 21:03:08 25° WNW 21:03:08 25° WNW
